Weather History for KLCK - May, 2013

Change the Weather History Date:

Sunday, May 5, 2013

  Actual Average Record
Temperature  
Mean Temperature 60 °F -  
Max Temperature 71 °F 71 °F 84 °F (2000)
Min Temperature 50 °F 49 °F 36 °F (2011)
Degree Days  
Heating Degree Days 4    
Growing Degree Days 10 (Base 50)    
Moisture  
Dew Point 38 °F    
Average Humidity 42    
Maximum Humidity 70    
Minimum Humidity 25    
Precipitation  
Precipitation 0.00 in - - ()
Sea Level Pressure  
Sea Level Pressure 29.99 in    
Wind  
Wind Speed 8 mph (East)    
Max Wind Speed 15 mph    
Max Gust Speed 22 mph    
Visibility 10 miles    
Events      
Averages and records for this station are not official NWS values.
T = Trace of Precipitation, MM = Missing Value Source: NWS Daily Summary

Daily Weather History Graph

Daily Weather History Graph

Search for Another Location

Airport or City:

Trip Planner

Search our weather history database for the weather conditions in past years. The results will help you decide how hot, cold, wet, or windy it might be!

Date:

Astronomy

May. 05, 2013 Rise Set
Actual Time 6:27 AM EDT 8:30 PM EDT
Civil Twilight 5:57 AM EDT 9:00 PM EDT
Nautical Twilight 5:21 AM EDT 9:36 PM EDT
Astronomical Twilight 4:42 AM EDT 10:15 PM EDT
Moon 3:56 AM EDT (5/5) 4:29 PM EDT (5/5)
Length of Visible Light 15h 02m
Length of Day
14h 03m
Waning Crescent, 18% of the Moon is Illuminated
May 5
Waning Crescent
May 9
New
May 18
First Quarter
May 25
Full
May 31
Last Quarter

Hourly Weather History & Observations

Time (EDT) Temp. Dew Point Humidity Pressure Visibility Wind Dir Wind Speed Gust Speed Precip Events Conditions
12:15 AM 59.9 °F 39.0 °F 46% 30.02 in 10.0 mi East 10.4 mph - N/A   Clear
12:35 AM 59.7 °F 39.0 °F 46% 30.03 in 10.0 mi East 10.4 mph - N/A   Clear
12:55 AM 60.3 °F 38.3 °F 44% 30.03 in 10.0 mi East 6.9 mph - N/A   Clear
1:15 AM 59.2 °F 38.8 °F 47% 30.04 in 10.0 mi ESE 9.2 mph - N/A   Clear
1:35 AM 59.5 °F 38.7 °F 46% 30.04 in 10.0 mi ESE 6.9 mph - N/A   Clear
1:55 AM 59.4 °F 38.8 °F 47% 30.04 in 10.0 mi ESE 6.9 mph - N/A   Clear
2:15 AM 58.8 °F 39.2 °F 48% 30.03 in 10.0 mi ESE 8.1 mph - N/A   Clear
2:35 AM 58.3 °F 39.6 °F 50% 30.03 in 10.0 mi ESE 8.1 mph - N/A   Clear
2:55 AM 57.9 °F 39.9 °F 51% 30.03 in 10.0 mi East 5.8 mph - N/A   Clear
3:15 AM 56.5 °F 40.3 °F 55% 30.03 in 10.0 mi ENE 4.6 mph - N/A   Clear
3:35 AM 55.8 °F 40.5 °F 56% 30.03 in 10.0 mi East 3.5 mph - N/A   Clear
3:55 AM 55.6 °F 40.3 °F 56% 30.03 in 10.0 mi ENE 4.6 mph - N/A   Clear
4:15 AM 53.6 °F 40.3 °F 61% 30.03 in 10.0 mi ENE 5.8 mph - N/A   Clear
4:35 AM 51.3 °F 40.8 °F 67% 30.03 in 10.0 mi NE 6.9 mph - N/A   Clear
4:55 AM 50.5 °F 41.0 °F 70% 30.03 in 10.0 mi ENE 6.9 mph - N/A   Clear
5:15 AM 50.9 °F 41.4 °F 70% 30.02 in 10.0 mi ENE 9.2 mph - N/A   Clear
5:35 AM 51.8 °F 41.9 °F 69% 30.02 in 10.0 mi ENE 8.1 mph - N/A   Clear
5:55 AM 51.8 °F 42.1 °F 69% 30.02 in 10.0 mi East 5.8 mph - N/A   Clear
6:15 AM 51.8 °F 41.9 °F 69% 30.02 in 10.0 mi ENE 5.8 mph - N/A   Clear
6:35 AM 51.8 °F 42.3 °F 70% 30.02 in 10.0 mi ENE 5.8 mph - N/A   Clear
6:55 AM 52.3 °F 42.6 °F 69% 30.02 in 10.0 mi ENE 9.2 mph - N/A   Clear
7:15 AM 53.6 °F 43.0 °F 67% 30.02 in 10.0 mi ENE 4.6 mph - N/A   Scattered Clouds
7:35 AM 54.9 °F 43.0 °F 64% 30.02 in 10.0 mi East 5.8 mph - N/A   Scattered Clouds
7:55 AM 56.1 °F 42.4 °F 60% 30.02 in 10.0 mi ENE 5.8 mph - N/A   Clear
8:15 AM 57.0 °F 41.7 °F 57% 30.02 in 10.0 mi East 10.4 mph - N/A   Clear
8:35 AM 58.3 °F 40.3 °F 51% 30.02 in 10.0 mi East 10.4 mph - N/A   Clear
8:55 AM 59.4 °F 40.5 °F 50% 30.02 in 10.0 mi East 10.4 mph - N/A   Clear
9:15 AM 60.8 °F 39.7 °F 46% 30.03 in 10.0 mi East 10.4 mph - N/A   Clear
9:35 AM 61.9 °F 39.6 °F 44% 30.02 in 10.0 mi East 10.4 mph - N/A   Clear
9:55 AM 62.8 °F 36.3 °F 37% 30.02 in 10.0 mi East 15.0 mph 21.9 mph N/A   Clear
10:15 AM 62.6 °F 31.8 °F 32% 30.01 in 10.0 mi East 11.5 mph - N/A   Clear
10:35 AM 63.9 °F 33.1 °F 32% 30.01 in 10.0 mi East 8.1 mph - N/A   Clear
10:55 AM 64.0 °F 34.2 °F 33% 30.01 in 10.0 mi ENE 9.2 mph - N/A   Clear
11:15 AM 64.4 °F 33.1 °F 31% 30.01 in 10.0 mi ENE 10.4 mph 16.1 mph N/A   Clear
11:35 AM 65.8 °F 32.7 °F 29% 30.00 in 10.0 mi East 9.2 mph - N/A   Clear
11:55 AM 68.0 °F 32.0 °F 26% 30.00 in 10.0 mi East 13.8 mph 18.4 mph N/A   Scattered Clouds
12:15 PM 68.4 °F 30.6 °F 25% 30.00 in 10.0 mi ESE 9.2 mph 18.4 mph N/A   Mostly Cloudy
12:35 PM 68.5 °F 32.0 °F 26% 30.01 in 10.0 mi ESE 9.2 mph - N/A   Overcast
12:55 PM 69.1 °F 32.2 °F 25% 30.00 in 10.0 mi East 8.1 mph - N/A   Overcast
1:15 PM 69.3 °F 32.5 °F 26% 30.00 in 10.0 mi ESE 10.4 mph - N/A   Mostly Cloudy
1:35 PM 69.1 °F 31.5 °F 25% 30.00 in 10.0 mi East 8.1 mph - N/A   Scattered Clouds
2:15 PM 68.5 °F 31.5 °F 25% 29.99 in 10.0 mi ESE 8.1 mph - N/A   Overcast
2:35 PM 69.1 °F 33.8 °F 27% 29.98 in 10.0 mi ESE 4.6 mph - N/A   Mostly Cloudy
2:55 PM 69.8 °F 33.8 °F 27% 29.98 in 10.0 mi SE 3.5 mph - N/A   Mostly Cloudy
3:15 PM 70.0 °F 33.1 °F 26% 29.98 in 10.0 mi Calm Calm - N/A   Overcast
3:35 PM 70.2 °F 32.9 °F 25% 29.97 in 10.0 mi Calm Calm - N/A   Mostly Cloudy
3:55 PM 70.5 °F 32.7 °F 25% 29.96 in 10.0 mi Calm Calm - N/A   Mostly Cloudy
4:35 PM 70.5 °F 37.8 °F 30% 29.94 in 10.0 mi West 3.5 mph - N/A   Clear
4:55 PM 70.7 °F 39.2 °F 32% 29.94 in 10.0 mi ENE 4.6 mph - N/A   Scattered Clouds
5:15 PM 71.4 °F 36.7 °F 28% 29.94 in 10.0 mi East 8.1 mph - N/A   Scattered Clouds
5:35 PM 71.1 °F 36.0 °F 28% 29.93 in 10.0 mi NE 9.2 mph - N/A   Clear
5:55 PM 70.7 °F 35.6 °F 28% 29.93 in 10.0 mi ENE 9.2 mph - N/A   Clear
6:15 PM 70.2 °F 38.1 °F 31% 29.93 in 10.0 mi NE 8.1 mph - N/A   Clear
6:35 PM 69.6 °F 40.3 °F 34% 29.92 in 10.0 mi NE 6.9 mph - N/A   Clear
6:55 PM 68.9 °F 40.3 °F 35% 29.92 in 10.0 mi NE 6.9 mph - N/A   Clear
7:15 PM 68.4 °F 40.3 °F 36% 29.92 in 10.0 mi NE 8.1 mph - N/A   Clear
7:35 PM 67.5 °F 40.5 °F 37% 29.92 in 10.0 mi NE 5.8 mph - N/A   Clear
7:55 PM 66.6 °F 41.2 °F 40% 29.93 in 10.0 mi ENE 5.8 mph - N/A   Clear
8:15 PM 66.6 °F 38.8 °F 36% 29.93 in 10.0 mi ENE 5.8 mph - N/A   Clear
8:35 PM 66.7 °F 37.0 °F 33% 29.93 in 10.0 mi ENE 6.9 mph - N/A   Scattered Clouds
8:55 PM 65.5 °F 37.6 °F 36% 29.93 in 10.0 mi ENE 5.8 mph - N/A   Mostly Cloudy
9:15 PM 65.3 °F 37.6 °F 36% 29.94 in 10.0 mi East 6.9 mph - N/A   Scattered Clouds
9:35 PM 66.0 °F 34.9 °F 32% 29.94 in 10.0 mi ENE 6.9 mph - N/A   Scattered Clouds
9:55 PM 66.0 °F 34.7 °F 31% 29.95 in 10.0 mi ESE 5.8 mph - N/A   Overcast
10:35 PM 65.3 °F 33.3 °F 30% 29.95 in 10.0 mi East 4.6 mph - N/A   Mostly Cloudy
10:55 PM 64.4 °F 34.7 °F 33% 29.95 in 10.0 mi East 4.6 mph - N/A   Mostly Cloudy
11:15 PM 64.2 °F 35.4 °F 34% 29.95 in 10.0 mi South 4.6 mph - N/A   Overcast
11:35 PM 64.2 °F 37.9 °F 38% 29.96 in 10.0 mi SSE 3.5 mph - N/A   Overcast
11:55 PM 63.9 °F 41.0 °F 43% 29.96 in 10.0 mi Calm Calm - N/A   Overcast